Probability
0 3 0 0 0 0 0 0 0 0 0 0 0 0 0 3 0 0 3 3 3 3 3 3 3 3 3 3 0 0 0 0 0 0 0 0 0 0
6 0 3 0 0 0 0 0 0 0 0 0 0 0 0 0 0 0 3 3 3 3 3 3 3 3 3 0 0 0 0 0 0 0 0 0 0 0
3 0 3 0 0 0 0 0 0 0 0 0 0 0 0 0 0 3 3 3 3 3 3 3 3 3 3 0 0 0 0 0 0 0 0 0 0 0
0 0 0 0 0 0 0 0 0 0 0 0 0 0 0 0 0 0 3 3 3 3 3 3 3 0 0 0 0 0 0 0 0 0 0 0 0 0
0 0 0 0 0 0 0 0 0 0 0 0 0 0 0 0 0 0 0 3 3 0 0 0 0 0 0 0 0 0 0 0 0 0 0 0 0 0
0 0 0 0 0 0 0 0 0 0 0 0 0 0 0 0 0 0 0 0 0 3 0 0 0 0 0 0 0 0 0 0 0 0 0 0 0 0
3 0 0 0 0 0 0 0 0 0 0 0 0 0 0 0 0 0 0 0 0 0 0 0 0 0 0 0 0 0 0 0 0 0 0 0 0 0
3 0 0 0 0 0 0 0 0 0 0 0 0 0 0 0 0 0 0 0 0 0 0 0 0 0 0 0 0 0 0 0 0 0 0 0 0 0
3 3 0 0 0 0 0 0 0 0 0 0 0 0 0 0 0 0 0 0 0 0 0 0 0 0 0 0 0 0 0 0 0 0 0 0 0 0
3 0 0 0 0 0 0 0 0 0 0 0 0 0 0 0 0 0 0 0 0 0 0 0 0 0 0 0 0 0 0 0 0 0 0 0 0 0
0 0 0 0 0 0 0 0 0 0 0 0 0 0 0 0 0 0 0 0 0 0 0 0 0 0 0 0 0 0 0 0 0 0 0 0 0 0
0 0 0 0 0 0 0 0 0 0 0 0 0 0 0 0 0 0 0 0 0 0 0 0 0 0 0 0 0 0 0 0 0 0 0 0 0 0
0 0 0 0 0 0 0 0 0 0 0 0 0 0 0 0 0 0 0 0 0 0 0 0 0 0 0 0 0 0 0 0 0 0 0 0 0 0
0 0 0 0 0 0 0 0 0 0 0 0 0 0 0 0 0 0 0 0 0 0 0 0 0 0 0 0 0 0 0 0 0 0 0 0 0 0
0 0 0 0 0 0 0 0 0 0 0 0 0 0 0 0 0 0 0 0 0 0 0 0 0 0 0 0 0 0 0 0 0 0 0 0 0 0
0 0 0 0 0 0 0 0 0 0 0 0 0 0 0 0 0 0 0 0 0 0 0 0 0 0 0 0 0 0 0 0 0 0 0 0 0 0
0 0 0 0 0 0 0 0 0 0 0 0 0 0 0 0 0 0 0 0 0 0 0 0 0 0 0 0 0 0 0 0 0 0 0 0 0 0
0 0 0 0 0 0 0 0 0 0 0 0 0 0 0 0 0 0 0 0 0 0 0 0 0 0 0 0 0 0 0 0 0 0 0 0 0 0
0 0 0 0 0 0 0 0 0 0 0 0 0 0 0 0 0 0 0 0 0 0 0 0 0 0 0 0 0 0 0 0 0 0 0 0 0 0
0 0 0 0 0 0 0 0 0 0 0 0 0 0 0 0 0 0 0 0 0 0 0 0 0 0 0 0 0 0 0 0 0 0 0 0 0 0
0 0 0 0 0 0 0 0 0 0 0 0 0 0 0 0 0 0 0 0 0 0 0 0 0 0 0 0 0 0 0 0 0 0 0 0 0 0
0 0 0 0 0 0 0 0 0 0 0 0 0 0 0 0 0 0 0 0 0 0 0 0 0 0 0 0 0 0 0 0 0 0 0 0 0 0
0 0 0 0 0 0 0 0 0 0 0 0 0 0 0 0 0 0 0 0 0 0 0 0 0 0 0 0 0 0 0 0 0 0 0 0 0 0
Height
5862 5862 5862 5861 5861 5861 5860 5860 5860 5859 5859 5858 5857 5856 5855 5855 5854 5853 5852 5851 5851 5850 5849 5848 5847 5846 5844 5843 5842 5840 5839 5838 5836 5835 5834 5833 5832 5831
5862 5861 5861 5861 5860 5860 5859 5859 5858 5858 5857 5857 5856 5855 5854 5854 5853 5852 5851 5850 5849 5848 5847 5846 5845 5844 5842 5841 5839 5838 5836 5834 5833 5832 5831 5830 5828 5827
5861 5861 5860 5860 5859 5859 5858 5857 5857 5856 5856 5855 5855 5854 5853 5853 5852 5851 5850 5849 5848 5847 5845 5844 5843 5841 5840 5838 5836 5835 5833 5831 5830 5828 5827 5825 5824 5823
5860 5860 5859 5859 5858 5857 5857 5856 5855 5855 5854 5854 5853 5853 5852 5851 5850 5849 5848 5847 5846 5844 5843 5842 5840 5838 5837 5835 5833 5831 5829 5827 5825 5824 5822 5821 5819 5818
5859 5859 5858 5857 5857 5856 5855 5854 5853 5853 5852 5852 5851 5851 5850 5849 5848 5847 5846 5845 5843 5842 5840 5839 5837 5835 5833 5831 5829 5827 5825 5823 5821 5819 5817 5815 5813 5812
5857 5857 5857 5856 5855 5854 5854 5853 5852 5851 5850 5850 5849 5849 5848 5847 5846 5845 5843 5842 5840 5839 5837 5835 5833 5831 5829 5827 5825 5822 5820 5817 5815 5813 5811 5809 5807 5805
5856 5855 5855 5854 5853 5853 5852 5851 5850 5849 5849 5848 5847 5846 5845 5844 5843 5841 5840 5838 5837 5835 5833 5831 5829 5827 5825 5822 5820 5817 5814 5812 5809 5806 5804 5802 5800 5797
5854 5854 5853 5852 5851 5851 5850 5849 5848 5847 5846 5845 5844 5843 5842 5841 5839 5838 5836 5835 5833 5831 5829 5827 5824 5822 5819 5817 5814 5811 5808 5805 5802 5799 5796 5794 5791 5789
5851 5851 5850 5850 5849 5848 5847 5846 5845 5844 5843 5842 5841 5840 5838 5837 5836 5834 5832 5830 5828 5826 5824 5821 5819 5816 5813 5810 5807 5804 5801 5798 5795 5791 5788 5785 5782 5780
5848 5848 5847 5847 5846 5845 5844 5843 5842 5841 5840 5838 5837 5835 5834 5832 5831 5829 5827 5825 5823 5820 5818 5815 5812 5809 5806 5803 5800 5797 5793 5790 5786 5783 5780 5777 5773 5770
5845 5844 5844 5843 5842 5841 5840 5839 5838 5837 5836 5834 5833 5831 5829 5827 5825 5824 5822 5819 5817 5814 5811 5808 5806 5802 5799 5796 5792 5788 5785 5781 5778 5774 5771 5768 5764 5761
5841 5841 5840 5839 5838 5837 5836 5835 5834 5833 5831 5830 5828 5826 5824 5822 5820 5817 5815 5813 5810 5807 5804 5801 5798 5795 5792 5788 5784 5780 5776 5772 5769 5765 5761 5758 5754 5751
5837 5837 5836 5835 5834 5833 5832 5831 5830 5828 5827 5825 5823 5821 5819 5817 5814 5811 5808 5806 5803 5799 5797 5793 5790 5786 5783 5779 5775 5771 5767 5763 5758 5754 5751 5747 5743 5739
5833 5832 5832 5831 5830 5829 5828 5826 5825 5824 5822 5820 5818 5815 5813 5810 5808 5805 5801 5798 5795 5791 5788 5784 5781 5777 5773 5769 5765 5761 5757 5752 5748 5744 5739 5735 5731 5726
5828 5828 5827 5826 5826 5824 5823 5821 5820 5818 5816 5814 5812 5809 5807 5804 5801 5798 5794 5791 5787 5783 5779 5775 5771 5767 5763 5759 5755 5750 5746 5741 5736 5732 5727 5722 5718 5713
5824 5823 5822 5822 5821 5819 5818 5816 5814 5812 5810 5807 5805 5802 5799 5796 5793 5790 5786 5782 5779 5774 5770 5765 5761 5757 5752 5748 5743 5738 5733 5729 5724 5719 5714 5709 5704 5699
5819 5818 5817 5816 5815 5813 5811 5810 5807 5805 5803 5800 5797 5795 5791 5788 5785 5781 5777 5773 5769 5765 5760 5755 5750 5745 5741 5736 5731 5725 5720 5715 5710 5705 5700 5695 5689 5684
5813 5812 5811 5810 5809 5807 5805 5803 5801 5798 5795 5793 5789 5786 5783 5779 5776 5772 5767 5763 5759 5754 5749 5744 5740 5734 5729 5723 5717 5712 5706 5701 5695 5690 5684 5679 5674 5668
5807 5806 5805 5804 5802 5800 5798 5796 5793 5790 5787 5784 5781 5777 5774 5770 5766 5762 5757 5753 5748 5743 5738 5732 5727 5721 5716 5711 5705 5697 5692 5686 5681 5675 5669 5664 5658 5653
5801 5799 5798 5796 5795 5792 5790 5787 5785 5782 5779 5775 5772 5768 5764 5760 5756 5751 5747 5742 5737 5731 5726 5720 5714 5708 5702 5697 5691 5685 5677 5671 5666 5660 5654 5648 5643 5636
5793 5792 5791 5789 5787 5784 5782 5779 5776 5773 5770 5766 5762 5759 5754 5750 5745 5741 5735 5730 5725 5719 5713 5707 5701 5694 5688 5682 5677 5671 5664 5656 5650 5644 5638 5633 5627 5621
5786 5784 5782 5780 5778 5776 5773 5770 5767 5764 5760 5757 5753 5748 5744 5739 5734 5729 5724 5718 5713 5706 5700 5694 5687 5681 5674 5668 5662 5656 5650 5643 5635 5628 5621 5616 5610 5604
5778 5776 5774 5772 5770 5767 5764 5761 5758 5754 5751 5747 5743 5738 5733 5728 5723 5718 5712 5706 5700 5693 5687 5680 5674 5667 5660 5654 5647 5641 5635 5628 5621 5615 5607 5599 5593 5587
Wind_Speed
2 3 4 4 4 4 4 5 6 6 6 7 7 7 7 8 8 8 8 8 9 9 10 10 11 11 10 11 11 11 12 12 13 13 14 14 15 15
3 4 4 5 5 5 5 6 7 7 7 7 7 8 7 8 8 9 9 9 10 10 11 11 12 13 12 13 13 14 15 15 15 16 16 16 16 16
4 5 5 6 6 6 6 7 8 7 8 8 8 8 8 8 9 10 10 10 11 12 12 13 13 14 15 15 15 16 17 17 17 17 17 18 18 18
6 6 7 7 7 7 8 8 8 8 9 9 9 9 9 9 11 11 12 12 13 13 14 15 15 16 16 17 18 18 18 18 19 19 19 20 20 21
7 7 8 8 8 8 8 9 9 9 10 10 10 11 11 11 12 13 14 14 14 15 16 17 17 18 19 19 20 20 20 20 21 21 22 22 23 23
7 8 8 8 9 9 9 9 9 10 10 11 12 12 12 13 14 15 15 16 16 16 17 18 19 20 20 21 22 22 22 22 23 24 24 24 25 25
8 8 9 9 9 10 10 10 11 11 12 12 13 13 14 14 15 16 17 17 18 18 18 19 20 21 22 22 23 24 25 25 25 26 27 27 27 28
10 10 10 10 10 11 12 12 13 13 14 14 14 15 15 16 16 17 18 18 19 20 20 21 22 23 24 25 25 26 27 28 28 28 29 30 30 30
11 11 12 12 13 13 13 13 14 15 15 15 16 16 16 17 18 19 20 20 21 21 22 23 24 25 26 27 27 28 30 30 31 31 31 31 32 32
13 13 14 14 14 14 14 14 15 16 16 16 17 17 18 19 20 21 22 22 23 24 25 26 27 27 28 28 29 30 31 32 32 32 32 32 33 34
14 15 15 15 15 16 16 16 16 17 17 18 19 19 20 21 22 23 24 24 25 26 27 28 28 29 30 31 32 32 33 33 33 33 34 34 35 35
15 16 15 15 16 16 16 17 17 18 18 19 20 21 22 23 24 25 25 26 27 28 29 29 30 31 31 32 33 34 35 35 36 36 36 36 37 37
16 16 16 16 16 17 18 18 18 19 20 21 22 22 23 24 25 26 27 28 29 30 30 31 32 33 33 34 35 35 36 37 37 38 39 39 40 40
17 17 17 17 18 18 18 19 20 21 22 23 24 24 25 26 26 27 28 30 31 31 32 33 34 34 35 36 37 37 38 39 40 40 41 42 43 43
17 17 17 18 19 19 20 21 22 23 24 25 25 26 27 27 28 29 30 32 33 34 35 36 36 37 38 38 39 40 41 41 42 43 44 45 45 45
18 18 19 19 20 22 23 24 24 25 25 26 27 28 29 30 31 32 33 34 35 36 37 38 39 40 40 41 42 43 43 44 44 45 46 46 47 47
19 20 20 21 22 23 24 24 25 26 27 28 29 30 31 32 33 35 35 36 37 38 39 40 41 42 43 44 45 46 47 47 48 48 48 49 49 50
21 22 22 22 23 24 25 26 27 28 30 30 31 32 33 34 35 36 37 38 39 40 41 42 43 44 45 46 47 48 48 49 49 50 50 50 51 51
22 23 24 24 25 26 27 28 29 30 31 32 33 34 35 36 37 37 38 39 40 42 43 44 46 46 47 47 47 49 49 49 50 50 50 51 51 52
24 25 25 26 27 28 29 30 31 31 32 33 34 35 36 37 38 39 40 42 43 44 45 47 48 48 49 49 48 49 50 51 51 51 51 51 52 52
26 26 27 27 28 29 31 31 32 32 33 34 35 36 37 39 40 41 42 44 45 46 47 48 49 50 50 50 50 51 51 52 52 52 52 52 52 52
26 27 28 29 30 31 31 32 32 33 34 35 36 38 39 41 42 43 45 46 48 49 49 50 51 51 51 51 52 52 52 52 52 53 54 54 54 53
27 28 29 30 30 31 32 33 34 34 35 36 38 40 41 42 44 45 47 48 49 50 51 51 52 52 52 52 52 53 52 52 53 53 54 54 54 53
Wind_Direction
333 337 338 333 326 326 325 329 329 330 327 326 328 330 328 328 329 334 338 336 334 334 333 331 330 327 322 320 315 315 315 310 308 306 304 302 300 298
312 317 322 322 319 321 322 323 323 323 322 324 328 333 332 331 331 330 331 330 326 325 325 324 324 324 321 316 314 314 312 310 308 306 304 303 303 302
303 306 311 319 317 313 314 316 318 319 319 321 324 326 327 328 329 329 327 325 323 321 320 319 318 318 318 318 317 317 313 311 309 308 307 306 303 302
299 303 306 308 312 310 310 312 313 313 311 313 317 317 319 319 321 323 322 320 320 319 320 320 318 317 317 316 316 315 312 310 309 308 307 305 302 301
295 299 302 305 308 307 310 311 310 309 308 311 311 310 309 311 314 315 315 314 313 313 314 314 314 314 315 314 314 314 311 309 308 306 304 303 302 301
295 301 303 303 304 307 309 312 312 311 311 310 308 306 305 307 310 312 314 312 311 311 310 310 311 311 312 312 312 312 311 309 307 305 303 300 299 298
294 298 301 302 303 305 308 309 309 310 310 308 307 306 305 307 309 310 312 312 310 308 308 307 308 308 309 309 309 310 310 309 307 305 302 300 297 296
289 293 297 300 301 301 303 303 304 306 307 306 306 305 306 306 308 310 312 312 311 309 308 308 308 307 307 307 307 308 308 307 306 304 301 299 297 295
285 288 293 295 296 297 299 301 301 302 303 303 304 305 305 305 308 310 310 310 310 310 309 309 309 309 308 307 307 307 307 306 306 305 302 300 298 295
283 286 290 292 292 293 294 296 298 300 302 303 304 305 305 305 306 307 308 308 308 308 308 308 308 308 307 307 307 307 307 307 306 305 304 302 301 298
282 285 288 290 290 291 293 294 296 297 299 301 303 303 304 305 305 305 306 307 307 308 307 307 306 306 307 307 307 306 306 305 305 305 304 303 302 300
281 284 286 290 291 293 293 294 296 298 300 302 304 305 306 306 306 305 306 307 308 307 306 306 307 307 307 306 307 306 305 304 304 303 302 302 301 300
281 284 285 289 292 295 295 295 296 298 301 303 304 305 306 307 307 307 307 308 308 308 307 307 307 306 306 306 306 305 305 305 304 303 302 301 300 299
281 283 284 287 291 293 294 294 296 298 300 301 302 304 305 307 307 308 308 309 309 309 308 308 307 307 306 305 305 305 304 303 303 302 301 300 299 299
283 284 285 286 289 292 294 295 297 298 300 301 302 303 304 305 306 307 307 308 308 307 307 307 307 306 306 305 305 304 303 303 302 302 301 300 298 297
283 285 286 288 290 292 293 296 299 300 300 301 302 303 304 305 306 306 306 307 306 306 306 306 306 306 305 305 305 304 303 303 302 302 301 300 299 297
281 284 286 288 290 291 293 295 298 300 301 302 302 303 303 304 305 306 306 307 307 306 306 306 306 306 305 305 304 304 303 303 302 302 301 300 299 298
281 284 287 289 291 293 295 296 298 299 300 301 302 303 303 304 305 306 307 307 307 307 307 306 306 306 306 306 305 304 303 303 302 302 301 300 299 298
282 285 287 289 292 294 295 297 298 299 300 301 302 303 304 305 306 307 308 308 308 308 308 307 307 307 306 306 305 305 305 304 304 303 302 302 301 299
283 286 288 290 291 293 295 297 298 299 301 302 303 304 305 306 306 307 308 308 308 308 308 308 308 307 307 306 306 306 305 305 304 303 303 303 302 301
283 286 289 291 293 294 296 297 298 300 301 303 304 305 305 306 307 307 308 308 308 309 309 309 309 308 308 307 307 307 306 306 305 304 304 303 302 302
285 287 289 290 292 295 296 297 299 300 302 303 304 305 306 306 307 308 308 309 309 309 309 309 309 309 308 307 307 307 306 306 305 305 305 305 304 303
286 288 290 292 294 296 297 298 300 301 302 304 305 306 306 307 307 308 309 309 310 310 309 309 309 309 308 307 307 307 307 306 306 306 305 305 305 304